Park Rapids, MN

8:36 PM CST on February 07, 2016 (GMT -0600)
Park Rapids Municipal

Weather History for KPKD - December, 2013

Change the Weather History Date:

Tuesday, December 31, 2013

  Actual Average Record
Temperature  
Mean Temperature -20 °F -  
Max Temperature -11 °F 13 °F - (-1)
Min Temperature -29 °F -5 °F - (-1)
Degree Days  
Heating Degree Days 85    
Moisture  
Dew Point -25 °F    
Average Humidity 77    
Maximum Humidity 90    
Minimum Humidity 71    
Precipitation  
Precipitation 0.00 in - - ()
Sea Level Pressure  
Sea Level Pressure 30.40 in    
Wind  
Wind Speed 6 mph (NW)    
Max Wind Speed 10 mph    
Max Gust Speed -    
Visibility 10 miles    
Events      
Averages and records for this station are not official NWS values.
T = Trace of Precipitation, MM = Missing Value Source: NWS Daily Summary

Daily Weather History Graph

Daily Weather History Graph

Search for Another Location

Airport or City:

Trip Planner

Search our weather history database for the weather conditions in past years. The results will help you decide how hot, cold, wet, or windy it might be!

Date:

Astronomy

Dec. 31, 2013 Rise Set
Actual Time 8:05 AM CST 4:41 PM CST
Civil Twilight 7:30 AM CST 5:16 PM CST
Nautical Twilight 6:51 AM CST 5:55 PM CST
Astronomical Twilight 6:14 AM CST 6:32 PM CST
Moon 6:56 AM CST (12/31) 4:21 PM CST (12/31)
Length of Visible Light 9h 46m
Length of Day
8h 35m
Waning Crescent, 1% of the Moon is Illuminated
Dec 31
Waning Crescent
Jan 1
New
Jan 7
First Quarter
Jan 15
Full
Jan 23
Last Quarter

Hourly Weather History & Observations

Time (CST) Temp. Windchill Dew Point Humidity Pressure Visibility Wind Dir Wind Speed Gust Speed Precip Events Conditions
12:53 AM -26.0 °F -44.2 °F -27.9 °F 90% 30.27 in 10.0 mi WNW 6.9 mph - N/A   Clear
1:53 AM -29.0 °F -47.9 °F -33.0 °F 81% 30.27 in 10.0 mi WNW 6.9 mph - N/A   Clear
2:53 AM -24.0 °F -40.0 °F -27.9 °F 82% 30.27 in 10.0 mi West 5.8 mph - N/A   Clear
3:53 AM -23.1 °F -36.8 °F -26.0 °F 86% 30.27 in 10.0 mi NW 4.6 mph - N/A   Clear
4:53 AM -26.0 °F -48.5 °F -29.0 °F 85% 30.28 in 10.0 mi NW 10.4 mph - N/A   Clear
5:53 AM -26.0 °F -45.8 °F -32.1 °F 73% 30.31 in 10.0 mi WNW 8.1 mph - N/A   Clear
6:53 AM -27.9 °F -46.6 °F -32.1 °F 81% 30.32 in 10.0 mi WNW 6.9 mph - N/A   Clear
7:53 AM -27.9 °F -39.8 °F -32.1 °F 81% 30.35 in 10.0 mi West 3.5 mph - N/A   Clear
8:53 AM -26.0 °F -44.2 °F -32.1 °F 73% 30.38 in 10.0 mi WNW 6.9 mph - N/A   Clear
9:53 AM -20.0 °F -37.1 °F -26.0 °F 74% 30.41 in 10.0 mi NW 6.9 mph - N/A   Clear
10:53 AM -15.0 °F -32.4 °F -22.0 °F 71% 30.42 in 10.0 mi North 8.1 mph - N/A   Clear
11:53 AM -13.0 °F -30.0 °F -20.0 °F 71% 30.42 in 10.0 mi NNW 8.1 mph - N/A   Clear
12:53 PM -11.9 °F -25.7 °F -18.9 °F 71% 30.43 in 10.0 mi NNW 5.8 mph - N/A   Clear
1:53 PM -11.9 °F -25.7 °F -18.0 °F 74% 30.43 in 10.0 mi West 5.8 mph - N/A   Clear
2:53 PM -14.1 °F -28.3 °F -20.0 °F 75% 30.43 in 10.0 mi WSW 5.8 mph - N/A   Clear
3:53 PM -14.1 °F -26.3 °F -20.9 °F 71% 30.43 in 10.0 mi WSW 4.6 mph - N/A   Clear
4:53 PM -17.0 °F -27.2 °F -23.1 °F 74% 30.45 in 10.0 mi West 3.5 mph - N/A   Clear
5:53 PM -20.0 °F -30.7 °F -26.0 °F 74% 30.49 in 10.0 mi NW 3.5 mph - N/A   Clear
6:53 PM -15.0 °F -27.4 °F -20.0 °F 78% 30.49 in 10.0 mi North 4.6 mph - N/A   Clear
7:53 PM -16.1 °F -30.6 °F -22.0 °F 74% 30.49 in 10.0 mi NNE 5.8 mph - N/A   Clear
8:53 PM -16.1 °F -26.2 °F -20.9 °F 79% 30.50 in 10.0 mi Variable 3.5 mph - N/A   Partly Cloudy
9:53 PM -16.1 °F -28.6 °F -22.0 °F 74% 30.49 in 10.0 mi NNE 4.6 mph - N/A   Mostly Cloudy
10:53 PM -16.1 °F -30.6 °F -22.0 °F 74% 30.51 in 10.0 mi NNW 5.8 mph - N/A   Overcast
11:53 PM -16.1 °F -26.2 °F -22.0 °F 74% 30.51 in 10.0 mi NNW 3.5 mph - N/A   Overcast